Time,TemperatureF,DewpointF,PressureIn,WindDirection,WindDirectionDegrees,WindSpeedMPH,WindSpeedGustMPH,Humidity,HourlyPrecipIn,Conditions,Clouds,dailyrainin,SoftwareType,DateUTC
2013-07-27 00:02:00,75.2,66.2,29.93,South,188,6.9,-999.9,73,-99.99,,,-99.99,,2013-07-27 04:02:00,
2013-07-27 00:04:00,75.2,66.2,29.93,South,188,6.9,-999.9,73,-99.99,,,-99.99,,2013-07-27 04:04:00,
2013-07-27 00:06:00,75.2,66.2,29.93,South,188,6.9,-999.9,73,-99.99,,,-99.99,,2013-07-27 04:06:00,
2013-07-27 00:12:00,75.2,66.2,29.93,SSW,193,8.1,-999.9,73,-99.99,,,-99.99,,2013-07-27 04:12:00,
2013-07-27 00:18:00,75.2,66.2,29.93,SSW,193,8.1,-999.9,73,-99.99,,,-99.99,,2013-07-27 04:18:00,
2013-07-27 00:24:00,75.2,66.2,29.93,SSW,199,6.9,-999.9,73,-99.99,,,-99.99,,2013-07-27 04:24:00,
2013-07-27 00:26:00,75.2,66.2,29.93,SSW,199,6.9,-999.9,73,-99.99,,,-99.99,,2013-07-27 04:26:00,
2013-07-27 00:32:00,75.2,66.2,29.93,SSW,198,8.1,-999.9,73,-99.99,,,-99.99,,2013-07-27 04:32:00,
2013-07-27 00:38:00,75.2,66.2,29.93,SSW,198,8.1,-999.9,73,-99.99,,,-99.99,,2013-07-27 04:38:00,
2013-07-27 00:44:00,75.2,66.2,29.93,SSW,200,8.1,-999.9,73,-99.99,,,-99.99,,2013-07-27 04:44:00,
2013-07-27 00:50:00,75.2,66.2,29.93,SSW,200,8.1,-999.9,73,-99.99,,,-99.99,,2013-07-27 04:50:00,
2013-07-27 00:56:00,73.4,66.2,29.93,South,189,4.6,-999.9,78,-99.99,,,-99.99,,2013-07-27 04:56:00,
2013-07-27 01:02:00,73.4,66.2,29.93,SSW,201,4.6,-999.9,78,-99.99,,,-99.99,,2013-07-27 05:02:00,
2013-07-27 01:08:00,73.4,66.2,29.93,SSW,201,4.6,-999.9,78,-99.99,,,-99.99,,2013-07-27 05:08:00,
2013-07-27 02:02:00,73.4,66.2,29.92,South,190,3.5,-999.9,78,-99.99,,,-99.99,,2013-07-27 06:02:00,
2013-07-27 02:08:00,73.4,66.2,29.92,South,190,3.5,-999.9,78,-99.99,,,-99.99,,2013-07-27 06:08:00,
2013-07-27 02:14:00,71.6,64.4,29.92,SSW,200,11.5,-999.9,78,-99.99,,,-99.99,,2013-07-27 06:14:00,
2013-07-27 02:20:00,71.6,64.4,29.92,SSW,200,11.5,-999.9,78,-99.99,,,-99.99,,2013-07-27 06:20:00,
2013-07-27 02:26:00,71.6,64.4,29.92,SSW,194,8.1,-999.9,78,-99.99,,,-99.99,,2013-07-27 06:26:00,
2013-07-27 02:32:00,71.6,64.4,29.92,SSW,194,4.6,-999.9,78,-99.99,,,-99.99,,2013-07-27 06:32:00,
2013-07-27 02:38:00,71.6,64.4,29.92,SSW,194,4.6,-999.9,78,-99.99,,,-99.99,,2013-07-27 06:38:00,
2013-07-27 02:44:00,71.6,64.4,29.92,South,191,5.8,-999.9,78,-99.99,,,-99.99,,2013-07-27 06:44:00,
2013-07-27 02:50:00,71.6,64.4,29.92,South,191,5.8,-999.9,78,-99.99,,,-99.99,,2013-07-27 06:50:00,
2013-07-27 02:56:00,71.6,66.2,29.92,SSW,195,5.8,-999.9,83,-99.99,,,-99.99,,2013-07-27 06:56:00,
2013-07-27 03:02:00,71.6,64.4,29.92,SSW,195,6.9,-999.9,78,-99.99,,,-99.99,,2013-07-27 07:02:00,
2013-07-27 03:08:00,71.6,64.4,29.92,SSW,195,6.9,-999.9,78,-99.99,,,-99.99,,2013-07-27 07:08:00,
2013-07-27 03:14:00,71.6,64.4,29.92,SSW,213,9.2,-999.9,78,-99.99,,,-99.99,,2013-07-27 07:14:00,
2013-07-27 03:20:00,71.6,64.4,29.92,SSW,206,5.8,-999.9,78,-99.99,,,-99.99,,2013-07-27 07:20:00,
2013-07-27 03:26:00,71.6,64.4,29.92,SSW,206,5.8,-999.9,78,-99.99,,,-99.99,,2013-07-27 07:26:00,
2013-07-27 03:32:00,71.6,64.4,29.91,SSW,192,6.9,-999.9,78,-99.99,,,-99.99,,2013-07-27 07:32:00,
2013-07-27 03:38:00,71.6,64.4,29.91,SSW,192,6.9,-999.9,78,-99.99,,,-99.99,,2013-07-27 07:38:00,
2013-07-27 03:44:00,71.6,64.4,29.91,South,191,10.4,-999.9,78,-99.99,,,-99.99,,2013-07-27 07:44:00,
2013-07-27 03:50:00,71.6,64.4,29.91,South,191,10.4,-999.9,78,-99.99,,,-99.99,,2013-07-27 07:50:00,
2013-07-27 03:56:00,71.6,64.4,29.91,SSW,204,5.8,-999.9,78,-99.99,,,-99.99,,2013-07-27 07:56:00,
2013-07-27 04:02:00,71.6,64.4,29.92,SSW,212,5.8,-999.9,78,-99.99,,,-99.99,,2013-07-27 08:02:00,
2013-07-27 04:08:00,71.6,64.4,29.92,SSW,212,5.8,-999.9,78,-99.99,,,-99.99,,2013-07-27 08:08:00,
2013-07-27 04:14:00,71.6,66.2,29.91,SSW,200,3.5,-999.9,83,-99.99,,,-99.99,,2013-07-27 08:14:00,
2013-07-27 04:20:00,71.6,66.2,29.91,SSW,200,3.5,-999.9,83,-99.99,,,-99.99,,2013-07-27 08:20:00,
2013-07-27 04:26:00,71.6,66.2,29.91,SSW,210,9.2,-999.9,83,-99.99,,,-99.99,,2013-07-27 08:26:00,
2013-07-27 04:32:00,71.6,66.2,29.92,SW,216,5.8,-999.9,83,-99.99,,,-99.99,,2013-07-27 08:32:00,
2013-07-27 04:38:00,71.6,66.2,29.92,SW,216,5.8,-999.9,83,-99.99,,,-99.99,,2013-07-27 08:38:00,
2013-07-27 04:44:00,71.6,66.2,29.92,SSW,193,3.5,-999.9,83,-99.99,,,-99.99,,2013-07-27 08:44:00,
2013-07-27 04:50:00,71.6,66.2,29.92,SSW,193,3.5,-999.9,83,-99.99,,,-99.99,,2013-07-27 08:50:00,
2013-07-27 04:56:00,71.6,66.2,29.92,SSW,197,4.6,-999.9,83,-99.99,,,-99.99,,2013-07-27 08:56:00,
2013-07-27 05:02:00,71.6,66.2,29.92,SSW,202,2.3,-999.9,83,-99.99,,,-99.99,,2013-07-27 09:02:00,
2013-07-27 05:08:00,71.6,66.2,29.92,SSW,202,2.3,-999.9,83,-99.99,,,-99.99,,2013-07-27 09:08:00,
2013-07-27 05:14:00,71.6,66.2,29.92,SSW,212,4.6,-999.9,83,-99.99,,,-99.99,,2013-07-27 09:14:00,
2013-07-27 05:20:00,71.6,66.2,29.92,SSW,212,4.6,-999.9,83,-99.99,,,-99.99,,2013-07-27 09:20:00,
2013-07-27 05:26:00,71.6,66.2,29.93,SSW,198,4.6,-999.9,83,-99.99,,,-99.99,,2013-07-27 09:26:00,
2013-07-27 05:32:00,71.6,66.2,29.93,SSW,209,5.8,-999.9,83,-99.99,,,-99.99,,2013-07-27 09:32:00,
2013-07-27 05:38:00,71.6,66.2,29.93,SSW,209,5.8,-999.9,83,-99.99,,,-99.99,,2013-07-27 09:38:00,
2013-07-27 05:44:00,71.6,66.2,29.93,SSW,203,3.5,-999.9,83,-99.99,,,-99.99,,2013-07-27 09:44:00,
2013-07-27 05:50:00,71.6,66.2,29.93,SSW,203,3.5,-999.9,83,-99.99,,,-99.99,,2013-07-27 09:50:00,
2013-07-27 05:56:00,71.6,66.2,29.93,SSW,199,3.5,-999.9,83,-99.99,,,-99.99,,2013-07-27 09:56:00,
2013-07-27 06:02:00,71.6,66.2,29.93,SSW,193,4.6,-999.9,83,-99.99,,,-99.99,,2013-07-27 10:02:00,
2013-07-27 06:08:00,71.6,66.2,29.93,SSW,193,4.6,-999.9,83,-99.99,,,-99.99,,2013-07-27 10:08:00,
2013-07-27 06:14:00,71.6,66.2,29.93,SSW,197,2.3,-999.9,83,-99.99,,,-99.99,,2013-07-27 10:14:00,
2013-07-27 06:20:00,71.6,66.2,29.93,SSW,197,2.3,-999.9,83,-99.99,,,-99.99,,2013-07-27 10:20:00,
2013-07-27 06:26:00,71.6,66.2,29.93,SW,229,1.2,-999.9,83,-99.99,,,-99.99,,2013-07-27 10:26:00,
2013-07-27 06:32:00,71.6,66.2,29.93,North,0,0.0,-999.9,83,-99.99,,,-99.99,,2013-07-27 10:32:00,
2013-07-27 06:38:00,71.6,66.2,29.93,North,0,0.0,-999.9,83,-99.99,,,-99.99,,2013-07-27 10:38:00,
2013-07-27 06:52:00,71.6,64.4,29.93,North,0,0.0,-999.9,78,-99.99,,,-99.99,,2013-07-27 10:52:00,
2013-07-27 06:58:00,71.6,64.4,29.93,North,0,0.0,-999.9,78,-99.99,,,-99.99,,2013-07-27 10:58:00,
2013-07-27 07:04:00,73.4,66.2,29.93,WSW,249,1.2,-999.9,78,-99.99,,,-99.99,,2013-07-27 11:04:00,
2013-07-27 07:10:00,73.4,66.2,29.93,WSW,249,1.2,-999.9,78,-99.99,,,-99.99,,2013-07-27 11:10:00,
2013-07-27 07:16:00,73.4,64.4,29.93,North,0,0.0,-999.9,73,-99.99,,,-99.99,,2013-07-27 11:16:00,
2013-07-27 07:22:00,75.2,66.2,29.92,South,188,1.2,-999.9,73,-99.99,,,-99.99,,2013-07-27 11:22:00,
2013-07-27 07:28:00,75.2,66.2,29.92,South,188,1.2,-999.9,73,-99.99,,,-99.99,,2013-07-27 11:28:00,
2013-07-27 07:34:00,75.2,66.2,29.92,SW,226,4.6,-999.9,73,-99.99,,,-99.99,,2013-07-27 11:34:00,
2013-07-27 07:40:00,75.2,66.2,29.92,SW,226,4.6,-999.9,73,-99.99,,,-99.99,,2013-07-27 11:40:00,
2013-07-27 07:46:00,75.2,66.2,29.92,SSW,195,1.2,-999.9,73,-99.99,,,-99.99,,2013-07-27 11:46:00,
2013-07-27 07:52:00,75.2,66.2,29.92,WSW,243,5.8,-999.9,73,-99.99,,,-99.99,,2013-07-27 11:52:00,
2013-07-27 07:58:00,75.2,66.2,29.92,WSW,243,5.8,-999.9,73,-99.99,,,-99.99,,2013-07-27 11:58:00,
2013-07-27 08:04:00,75.2,66.2,29.91,SSW,213,1.2,-999.9,73,-99.99,,,-99.99,,2013-07-27 12:04:00,
2013-07-27 08:10:00,75.2,66.2,29.91,SSW,213,1.2,-999.9,73,-99.99,,,-99.99,,2013-07-27 12:10:00,
2013-07-27 08:16:00,77.0,66.2,29.91,SSW,211,3.5,-999.9,69,-99.99,,,-99.99,,2013-07-27 12:16:00,
2013-07-27 08:22:00,77.0,66.2,29.92,SW,214,3.5,-999.9,69,-99.99,,,-99.99,,2013-07-27 12:22:00,
2013-07-27 08:28:00,77.0,66.2,29.92,SW,214,3.5,-999.9,69,-99.99,,,-99.99,,2013-07-27 12:28:00,
2013-07-27 08:34:00,77.0,66.2,29.91,SW,221,3.5,-999.9,69,-99.99,,,-99.99,,2013-07-27 12:34:00,
2013-07-27 08:40:00,77.0,66.2,29.91,SW,221,3.5,-999.9,69,-99.99,,,-99.99,,2013-07-27 12:40:00,
2013-07-27 08:46:00,77.0,66.2,29.91,SSW,209,4.6,-999.9,69,-99.99,,,-99.99,,2013-07-27 12:46:00,
2013-07-27 08:52:00,77.0,66.2,29.91,SW,219,5.8,-999.9,69,-99.99,,,-99.99,,2013-07-27 12:52:00,
2013-07-27 08:58:00,77.0,66.2,29.91,SW,219,5.8,-999.9,69,-99.99,,,-99.99,,2013-07-27 12:58:00,
2013-07-27 09:04:00,78.8,66.2,29.91,SSW,210,9.2,-999.9,65,-99.99,,,-99.99,,2013-07-27 13:04:00,
2013-07-27 09:10:00,78.8,66.2,29.91,SSW,210,9.2,-999.9,65,-99.99,,,-99.99,,2013-07-27 13:10:00,
2013-07-27 09:16:00,77.0,64.4,29.91,SSW,206,8.1,-999.9,65,-99.99,,,-99.99,,2013-07-27 13:16:00,
2013-07-27 09:22:00,78.8,64.4,29.91,SSW,201,9.2,-999.9,61,-99.99,,,-99.99,,2013-07-27 13:22:00,
2013-07-27 09:28:00,78.8,64.4,29.91,SSW,201,9.2,-999.9,61,-99.99,,,-99.99,,2013-07-27 13:28:00,
2013-07-27 09:34:00,78.8,64.4,29.91,SW,217,8.1,-999.9,61,-99.99,,,-99.99,,2013-07-27 13:34:00,
2013-07-27 09:40:00,78.8,64.4,29.91,SW,217,8.1,-999.9,61,-99.99,,,-99.99,,2013-07-27 13:40:00,
2013-07-27 09:46:00,78.8,62.6,29.91,SSW,211,3.5,-999.9,57,-99.99,,,-99.99,,2013-07-27 13:46:00,
2013-07-27 09:52:00,80.6,62.6,29.91,SW,215,5.8,-999.9,54,-99.99,,,-99.99,,2013-07-27 13:52:00,
2013-07-27 09:58:00,80.6,62.6,29.91,SW,215,5.8,-999.9,54,-99.99,,,-99.99,,2013-07-27 13:58:00,
2013-07-27 10:04:00,80.6,60.8,29.91,SW,217,4.6,-999.9,51,-99.99,,,-99.99,,2013-07-27 14:04:00,
2013-07-27 10:10:00,80.6,60.8,29.91,SW,217,4.6,-999.9,51,-99.99,,,-99.99,,2013-07-27 14:10:00,
2013-07-27 10:16:00,80.6,60.8,29.91,SSW,205,4.6,-999.9,51,-99.99,,,-99.99,,2013-07-27 14:16:00,
2013-07-27 10:22:00,80.6,59.0,29.91,SSW,196,6.9,-999.9,48,-99.99,,,-99.99,,2013-07-27 14:22:00,
2013-07-27 10:28:00,80.6,59.0,29.91,SSW,196,6.9,-999.9,48,-99.99,,,-99.99,,2013-07-27 14:28:00,
2013-07-27 10:34:00,80.6,60.8,29.91,SSW,211,5.8,-999.9,51,-99.99,,,-99.99,,2013-07-27 14:34:00,
2013-07-27 10:40:00,80.6,60.8,29.91,SSW,211,5.8,-999.9,51,-99.99,,,-99.99,,2013-07-27 14:40:00,
2013-07-27 10:46:00,82.4,59.0,29.91,South,186,6.9,-999.9,45,-99.99,,,-99.99,,2013-07-27 14:46:00,
2013-07-27 10:52:00,82.4,59.0,29.91,SSW,203,5.8,-999.9,45,-99.99,,,-99.99,,2013-07-27 14:52:00,
2013-07-27 10:58:00,82.4,59.0,29.91,SSW,203,5.8,-999.9,45,-99.99,,,-99.99,,2013-07-27 14:58:00,
2013-07-27 11:04:00,82.4,59.0,29.90,SSW,207,6.9,-999.9,45,-99.99,,,-99.99,,2013-07-27 15:04:00,
2013-07-27 11:10:00,82.4,59.0,29.90,SSW,207,6.9,-999.9,45,-99.99,,,-99.99,,2013-07-27 15:10:00,
2013-07-27 11:16:00,82.4,57.2,29.91,SSW,207,6.9,-999.9,42,-99.99,,,-99.99,,2013-07-27 15:16:00,
2013-07-27 11:22:00,82.4,59.0,29.91,SSW,209,8.1,-999.9,45,-99.99,,,-99.99,,2013-07-27 15:22:00,
2013-07-27 11:28:00,82.4,59.0,29.91,SSW,209,8.1,-999.9,45,-99.99,,,-99.99,,2013-07-27 15:28:00,
2013-07-27 11:34:00,84.2,59.0,29.91,SSW,198,6.9,-999.9,42,-99.99,,,-99.99,,2013-07-27 15:34:00,
2013-07-27 11:40:00,84.2,59.0,29.91,SSW,198,6.9,-999.9,42,-99.99,,,-99.99,,2013-07-27 15:40:00,
2013-07-27 11:46:00,82.4,59.0,29.91,SSW,201,10.4,-999.9,45,-99.99,,,-99.99,,2013-07-27 15:46:00,
2013-07-27 11:52:00,84.2,60.8,29.91,SSW,211,5.8,-999.9,45,-99.99,,,-99.99,,2013-07-27 15:52:00,
2013-07-27 11:58:00,84.2,60.8,29.91,SSW,211,5.8,-999.9,45,-99.99,,,-99.99,,2013-07-27 15:58:00,
2013-07-27 12:04:00,84.2,60.8,29.90,SSW,207,10.4,-999.9,45,-99.99,,,-99.99,,2013-07-27 16:04:00,
2013-07-27 12:10:00,84.2,60.8,29.90,SSW,207,10.4,-999.9,45,-99.99,,,-99.99,,2013-07-27 16:10:00,
2013-07-27 12:16:00,82.4,59.0,29.90,SSW,212,6.9,-999.9,45,-99.99,,,-99.99,,2013-07-27 16:16:00,
2013-07-27 12:22:00,82.4,60.8,29.90,SSE,167,6.9,-999.9,48,-99.99,,,-99.99,,2013-07-27 16:22:00,
2013-07-27 12:28:00,82.4,60.8,29.90,SSE,167,6.9,-999.9,48,-99.99,,,-99.99,,2013-07-27 16:28:00,
2013-07-27 12:34:00,82.4,60.8,29.90,South,184,4.6,-999.9,48,-99.99,,,-99.99,,2013-07-27 16:34:00,
2013-07-27 12:40:00,82.4,60.8,29.90,South,184,4.6,-999.9,48,-99.99,,,-99.99,,2013-07-27 16:40:00,
2013-07-27 12:46:00,82.4,60.8,29.90,South,182,16.1,-999.9,48,-99.99,,,-99.99,,2013-07-27 16:46:00,
2013-07-27 12:52:00,82.4,60.8,29.90,SSE,163,6.9,-999.9,48,-99.99,,,-99.99,,2013-07-27 16:52:00,
2013-07-27 12:58:00,82.4,60.8,29.90,SSE,163,6.9,-999.9,48,-99.99,,,-99.99,,2013-07-27 16:58:00,
2013-07-27 13:04:00,82.4,60.8,29.90,South,177,12.7,-999.9,48,-99.99,,,-99.99,,2013-07-27 17:04:00,
2013-07-27 13:10:00,82.4,60.8,29.90,South,177,12.7,-999.9,48,-99.99,,,-99.99,,2013-07-27 17:10:00,
2013-07-27 13:16:00,82.4,60.8,29.89,SSW,203,8.1,-999.9,48,-99.99,,,-99.99,,2013-07-27 17:16:00,
2013-07-27 13:22:00,82.4,60.8,29.89,SSW,200,10.4,-999.9,48,-99.99,,,-99.99,,2013-07-27 17:22:00,
2013-07-27 13:28:00,82.4,60.8,29.89,SSW,200,10.4,-999.9,48,-99.99,,,-99.99,,2013-07-27 17:28:00,
2013-07-27 13:34:00,82.4,62.6,29.89,South,172,16.1,-999.9,51,-99.99,,,-99.99,,2013-07-27 17:34:00,
2013-07-27 13:40:00,82.4,62.6,29.89,South,172,16.1,-999.9,51,-99.99,,,-99.99,,2013-07-27 17:40:00,
2013-07-27 13:46:00,82.4,59.0,29.89,South,177,10.4,-999.9,45,-99.99,,,-99.99,,2013-07-27 17:46:00,
2013-07-27 13:52:00,82.4,60.8,29.89,South,175,9.2,-999.9,48,-99.99,,,-99.99,,2013-07-27 17:52:00,
2013-07-27 13:58:00,82.4,60.8,29.89,South,175,9.2,-999.9,48,-99.99,,,-99.99,,2013-07-27 17:58:00,
2013-07-27 14:04:00,82.4,60.8,29.88,South,181,5.8,-999.9,48,-99.99,,,-99.99,,2013-07-27 18:04:00,
2013-07-27 14:10:00,82.4,60.8,29.88,South,181,5.8,-999.9,48,-99.99,,,-99.99,,2013-07-27 18:10:00,
2013-07-27 14:16:00,84.2,62.6,29.88,South,190,8.1,-999.9,48,-99.99,,,-99.99,,2013-07-27 18:16:00,
2013-07-27 14:22:00,82.4,59.0,29.88,SSE,167,8.1,-999.9,45,-99.99,,,-99.99,,2013-07-27 18:22:00,
2013-07-27 14:28:00,82.4,59.0,29.88,SSE,167,8.1,-999.9,45,-99.99,,,-99.99,,2013-07-27 18:28:00,
2013-07-27 14:34:00,82.4,60.8,29.88,South,187,10.4,-999.9,48,-99.99,,,-99.99,,2013-07-27 18:34:00,
2013-07-27 14:40:00,82.4,60.8,29.88,South,187,10.4,-999.9,48,-99.99,,,-99.99,,2013-07-27 18:40:00,
2013-07-27 14:46:00,82.4,60.8,29.88,South,176,12.7,-999.9,48,-99.99,,,-99.99,,2013-07-27 18:46:00,
2013-07-27 14:52:00,82.4,60.8,29.88,South,183,9.2,-999.9,48,-99.99,,,-99.99,,2013-07-27 18:52:00,
2013-07-27 14:58:00,82.4,60.8,29.88,South,183,9.2,-999.9,48,-99.99,,,-99.99,,2013-07-27 18:58:00,
2013-07-27 15:04:00,82.4,59.0,29.88,South,189,12.7,-999.9,45,-99.99,,,-99.99,,2013-07-27 19:04:00,
2013-07-27 15:10:00,82.4,59.0,29.88,South,189,12.7,-999.9,45,-99.99,,,-99.99,,2013-07-27 19:10:00,
2013-07-27 15:16:00,82.4,59.0,29.87,South,185,19.6,-999.9,45,-99.99,,,-99.99,,2013-07-27 19:16:00,
2013-07-27 15:22:00,82.4,59.0,29.87,South,181,11.5,-999.9,45,-99.99,,,-99.99,,2013-07-27 19:22:00,
2013-07-27 15:28:00,82.4,59.0,29.87,South,181,11.5,-999.9,45,-99.99,,,-99.99,,2013-07-27 19:28:00,
2013-07-27 15:34:00,82.4,59.0,29.87,SSE,159,11.5,-999.9,45,-99.99,,,-99.99,,2013-07-27 19:34:00,
2013-07-27 15:40:00,82.4,59.0,29.87,SSE,159,11.5,-999.9,45,-99.99,,,-99.99,,2013-07-27 19:40:00,
2013-07-27 15:46:00,82.4,59.0,29.87,South,178,17.3,-999.9,45,-99.99,,,-99.99,,2013-07-27 19:46:00,
2013-07-27 15:52:00,82.4,59.0,29.87,South,182,9.2,-999.9,45,-99.99,,,-99.99,,2013-07-27 19:52:00,
2013-07-27 15:58:00,82.4,59.0,29.87,South,182,9.2,-999.9,45,-99.99,,,-99.99,,2013-07-27 19:58:00,
2013-07-27 16:04:00,82.4,59.0,29.86,SSW,193,9.2,-999.9,45,-99.99,,,-99.99,,2013-07-27 20:04:00,
2013-07-27 16:10:00,82.4,59.0,29.86,SSW,193,9.2,-999.9,45,-99.99,,,-99.99,,2013-07-27 20:10:00,
2013-07-27 16:16:00,84.2,60.8,29.86,South,173,4.6,-999.9,45,-99.99,,,-99.99,,2013-07-27 20:16:00,
2013-07-27 16:22:00,84.2,59.0,29.86,SSE,151,8.1,-999.9,42,-99.99,,,-99.99,,2013-07-27 20:22:00,
2013-07-27 16:28:00,84.2,59.0,29.86,SSE,151,8.1,-999.9,42,-99.99,,,-99.99,,2013-07-27 20:28:00,
2013-07-27 16:34:00,82.4,59.0,29.85,SSW,209,12.7,-999.9,45,-99.99,,,-99.99,,2013-07-27 20:34:00,
2013-07-27 16:40:00,82.4,59.0,29.85,SSW,209,12.7,-999.9,45,-99.99,,,-99.99,,2013-07-27 20:40:00,
2013-07-27 16:46:00,84.2,59.0,29.85,South,173,5.8,-999.9,42,-99.99,,,-99.99,,2013-07-27 20:46:00,
2013-07-27 16:52:00,84.2,59.0,29.85,South,174,9.2,-999.9,42,-99.99,,,-99.99,,2013-07-27 20:52:00,
2013-07-27 16:58:00,84.2,59.0,29.85,South,174,9.2,-999.9,42,-99.99,,,-99.99,,2013-07-27 20:58:00,
2013-07-27 17:04:00,82.4,57.2,29.85,South,177,10.4,-999.9,42,-99.99,,,-99.99,,2013-07-27 21:04:00,
2013-07-27 17:10:00,82.4,57.2,29.85,South,177,10.4,-999.9,42,-99.99,,,-99.99,,2013-07-27 21:10:00,
2013-07-27 17:16:00,82.4,59.0,29.84,SSE,162,12.7,-999.9,45,-99.99,,,-99.99,,2013-07-27 21:16:00,
2013-07-27 17:22:00,82.4,60.8,29.85,South,178,6.9,-999.9,48,-99.99,,,-99.99,,2013-07-27 21:22:00,
2013-07-27 17:28:00,82.4,60.8,29.85,South,178,6.9,-999.9,48,-99.99,,,-99.99,,2013-07-27 21:28:00,
2013-07-27 17:34:00,80.6,59.0,29.84,South,183,6.9,-999.9,48,-99.99,,,-99.99,,2013-07-27 21:34:00,
2013-07-27 17:40:00,80.6,59.0,29.84,South,183,6.9,-999.9,48,-99.99,,,-99.99,,2013-07-27 21:40:00,
2013-07-27 17:46:00,82.4,59.0,29.85,SSE,151,9.2,-999.9,45,-99.99,,,-99.99,,2013-07-27 21:46:00,
2013-07-27 17:52:00,80.6,59.0,29.84,South,175,10.4,-999.9,48,-99.99,,,-99.99,,2013-07-27 21:52:00,
2013-07-27 17:58:00,80.6,59.0,29.84,South,175,10.4,-999.9,48,-99.99,,,-99.99,,2013-07-27 21:58:00,
2013-07-27 18:04:00,80.6,59.0,29.84,South,184,11.5,-999.9,48,-99.99,,,-99.99,,2013-07-27 22:04:00,
2013-07-27 18:10:00,80.6,59.0,29.84,South,184,11.5,-999.9,48,-99.99,,,-99.99,,2013-07-27 22:10:00,
2013-07-27 18:16:00,78.8,59.0,29.84,SSE,152,10.4,-999.9,51,-99.99,,,-99.99,,2013-07-27 22:16:00,
2013-07-27 18:24:00,80.6,59.0,29.84,SSE,149,10.4,-999.9,48,-99.99,,,-99.99,,2013-07-27 22:24:00,
2013-07-27 18:30:00,80.6,59.0,29.84,SSE,149,10.4,-999.9,48,-99.99,,,-99.99,,2013-07-27 22:30:00,
2013-07-27 18:36:00,78.8,57.2,29.84,South,189,16.1,-999.9,47,-99.99,,,-99.99,,2013-07-27 22:36:00,
2013-07-27 18:42:00,80.6,59.0,29.84,SSE,160,12.7,-999.9,48,-99.99,,,-99.99,,2013-07-27 22:42:00,
2013-07-27 18:48:00,80.6,59.0,29.84,SSE,160,12.7,-999.9,48,-99.99,,,-99.99,,2013-07-27 22:48:00,
2013-07-27 18:54:00,78.8,59.0,29.84,SSE,162,10.4,-999.9,51,-99.99,,,-99.99,,2013-07-27 22:54:00,
2013-07-27 19:00:00,78.8,59.0,29.84,SSE,162,10.4,-999.9,51,-99.99,,,-99.99,,2013-07-27 23:00:00,
2013-07-27 19:06:00,80.6,60.8,29.84,South,185,8.1,-999.9,51,-99.99,,,-99.99,,2013-07-27 23:06:00,
2013-07-27 19:12:00,78.8,60.8,29.85,SSE,159,12.7,-999.9,54,-99.99,,,-99.99,,2013-07-27 23:12:00,
2013-07-27 19:18:00,78.8,60.8,29.85,SSE,159,12.7,-999.9,54,-99.99,,,-99.99,,2013-07-27 23:18:00,
2013-07-27 19:24:00,78.8,60.8,29.85,SSE,153,11.5,-999.9,54,-99.99,,,-99.99,,2013-07-27 23:24:00,
2013-07-27 19:30:00,78.8,60.8,29.85,SSE,153,11.5,-999.9,54,-99.99,,,-99.99,,2013-07-27 23:30:00,
2013-07-27 19:36:00,78.8,60.8,29.85,SSE,168,9.2,-999.9,54,-99.99,,,-99.99,,2013-07-27 23:36:00,
2013-07-27 19:42:00,77.0,60.8,29.86,South,170,10.4,-999.9,57,-99.99,,,-99.99,,2013-07-27 23:42:00,
2013-07-27 19:48:00,77.0,60.8,29.86,South,170,10.4,-999.9,57,-99.99,,,-99.99,,2013-07-27 23:48:00,
2013-07-27 19:54:00,77.0,62.6,29.86,South,183,16.1,-999.9,61,-99.99,,,-99.99,,2013-07-27 23:54:00,
2013-07-27 20:00:00,77.0,62.6,29.86,South,183,16.1,-999.9,61,-99.99,,,-99.99,,2013-07-28 00:00:00,
2013-07-27 20:06:00,75.2,62.6,29.86,SSE,167,9.2,-999.9,65,-99.99,,,-99.99,,2013-07-28 00:06:00,
2013-07-27 21:02:00,75.2,66.2,29.88,South,183,2.3,-999.9,73,-99.99,,,-99.99,,2013-07-28 01:02:00,
2013-07-27 21:08:00,75.2,66.2,29.88,South,183,2.3,-999.9,73,-99.99,,,-99.99,,2013-07-28 01:08:00,
2013-07-27 21:14:00,73.4,64.4,29.88,SSW,198,6.9,-999.9,73,-99.99,,,-99.99,,2013-07-28 01:14:00,
2013-07-27 21:20:00,73.4,64.4,29.88,SSW,198,6.9,-999.9,73,-99.99,,,-99.99,,2013-07-28 01:20:00,
2013-07-27 21:26:00,75.2,68.0,29.89,SSW,203,3.5,-999.9,78,-99.99,,,-99.99,,2013-07-28 01:26:00,
2013-07-27 21:32:00,73.4,66.2,29.89,South,189,6.9,-999.9,78,-99.99,,,-99.99,,2013-07-28 01:32:00,
2013-07-27 21:38:00,73.4,66.2,29.89,South,189,6.9,-999.9,78,-99.99,,,-99.99,,2013-07-28 01:38:00,
2013-07-27 21:44:00,73.4,66.2,29.89,South,181,9.2,-999.9,78,-99.99,,,-99.99,,2013-07-28 01:44:00,
2013-07-27 21:50:00,73.4,66.2,29.89,South,181,9.2,-999.9,78,-99.99,,,-99.99,,2013-07-28 01:50:00,
2013-07-27 21:56:00,73.4,68.0,29.88,South,191,4.6,-999.9,83,-99.99,,,-99.99,,2013-07-28 01:56:00,
2013-07-27 22:02:00,73.4,68.0,29.89,SSW,198,8.1,-999.9,83,-99.99,,,-99.99,,2013-07-28 02:02:00,
2013-07-27 22:08:00,73.4,68.0,29.89,SSW,198,8.1,-999.9,83,-99.99,,,-99.99,,2013-07-28 02:08:00,
2013-07-27 22:14:00,73.4,68.0,29.89,SSW,203,3.5,-999.9,83,-99.99,,,-99.99,,2013-07-28 02:14:00,
2013-07-27 22:20:00,73.4,68.0,29.89,SSW,203,3.5,-999.9,83,-99.99,,,-99.99,,2013-07-28 02:20:00,
2013-07-27 22:26:00,73.4,68.0,29.88,South,186,4.6,-999.9,83,-99.99,,,-99.99,,2013-07-28 02:26:00,
2013-07-27 22:32:00,73.4,68.0,29.88,SSW,207,8.1,-999.9,83,-99.99,,,-99.99,,2013-07-28 02:32:00,
2013-07-27 22:38:00,73.4,68.0,29.88,SSW,207,8.1,-999.9,83,-99.99,,,-99.99,,2013-07-28 02:38:00,
2013-07-27 22:44:00,73.4,68.0,29.88,SSW,200,5.8,-999.9,83,-99.99,,,-99.99,,2013-07-28 02:44:00,
2013-07-27 22:50:00,73.4,68.0,29.88,SSW,200,5.8,-999.9,83,-99.99,,,-99.99,,2013-07-28 02:50:00,
2013-07-27 22:56:00,73.4,68.0,29.88,SSW,194,5.8,-999.9,83,-99.99,,,-99.99,,2013-07-28 02:56:00,
2013-07-27 23:02:00,73.4,68.0,29.87,South,187,3.5,-999.9,83,-99.99,,,-99.99,,2013-07-28 03:02:00,
2013-07-27 23:08:00,73.4,68.0,29.87,South,187,3.5,-999.9,83,-99.99,,,-99.99,,2013-07-28 03:08:00,
2013-07-27 23:14:00,71.6,68.0,29.86,South,180,3.5,-999.9,88,-99.99,,,-99.99,,2013-07-28 03:14:00,
2013-07-27 23:20:00,71.6,68.0,29.86,South,180,3.5,-999.9,88,-99.99,,,-99.99,,2013-07-28 03:20:00,
2013-07-27 23:26:00,73.4,68.0,29.85,South,170,0.0,-999.9,83,-99.99,,,-99.99,,2013-07-28 03:26:00,
2013-07-27 23:32:00,73.4,68.0,29.85,SSW,202,3.5,-999.9,83,-99.99,,,-99.99,,2013-07-28 03:32:00,
2013-07-27 23:38:00,73.4,68.0,29.85,SSW,202,3.5,-999.9,83,-99.99,,,-99.99,,2013-07-28 03:38:00,
2013-07-27 23:44:00,71.6,68.0,29.85,SSE,162,0.0,-999.9,88,-99.99,,,-99.99,,2013-07-28 03:44:00,
2013-07-27 23:50:00,71.6,68.0,29.85,SSE,162,0.0,-999.9,88,-99.99,,,-99.99,,2013-07-28 03:50:00,
2013-07-27 23:56:00,71.6,66.2,29.85,SSW,210,1.2,-999.9,83,-99.99,,,-99.99,,2013-07-28 03:56:00,